When you browse on this site, cookies collect data to enhance your experience and personalize the content and advertising you see.
Visit our Privacy Policy to learn more. By continuing to use the site, you agree to this use of cookies and data.
  • In Austria
  • List of Countries
  • For 7 days
  • Water Temperature
  • Satellite Maps
  • Weather Map
  • News
  • Weather Widgets
  • user-avatar
    Login

    Hourly Weather Punta Cana

    Today, 10 December, Monday

    Time Temperature Precipitation Wind Pressure Humidity
    00:00 +26°C° 0 mm 5 mps 764 mmHg 82%
    01:00 +26°C° 0 mm 5 mps 764 mmHg 82%
    02:00 +25°C° 0 mm 5 mps 764 mmHg 82%
    03:00 +25°C° 0 mm 5 mps 764 mmHg 82%
    04:00 +25°C° 0 mm 5 mps 763 mmHg 82%
    05:00 +26°C° 0 mm 5 mps 764 mmHg 81%
    06:00 +26°C° 0 mm 5 mps 764 mmHg 80%
    07:00 +27°C° 0 mm 5 mps 764 mmHg 78%
    08:00 +28°C° 0 mm 5 mps 764 mmHg 71%
    09:00 +30°C° 0 mm 5 mps 765 mmHg 64%
    10:00 +32°C° 0 mm 5 mps 765 mmHg 58%
    11:00 +32°C° 0.1 mm 5 mps 764 mmHg 57%
    12:00 +32°C° 0.1 mm 4 mps 764 mmHg 57%
    13:00 +33°C° 0.1 mm 4 mps 763 mmHg 57%
    14:00 +32°C° 0.1 mm 4 mps 763 mmHg 61%
    15:00 +30°C° 0.1 mm 4 mps 763 mmHg 66%
    16:00 +29°C° 0.1 mm 4 mps 763 mmHg 70%
    17:00 +28°C° 0 mm 4 mps 763 mmHg 73%
    18:00 +27°C° 0 mm 3 mps 763 mmHg 77%
    19:00 +27°C° 0 mm 3 mps 764 mmHg 81%
    20:00 +27°C° 0 mm 3 mps 764 mmHg 81%
    21:00 +27°C° 0 mm 3 mps 764 mmHg 82%
    22:00 +26°C° 0 mm 3 mps 764 mmHg 82%
    23:00 +26°C° 0 mm 3 mps 764 mmHg 83%

    Tomorrow, 11 December, Tuesday

    Time Temperature Precipitation Wind Pressure Humidity
    00:00 +26°C° 0 mm 3 mps 764 mmHg 83%
    01:00 +26°C° 0 mm 3 mps 764 mmHg 83%
    02:00 +26°C° 0 mm 4 mps 764 mmHg 84%
    03:00 +26°C° 0 mm 4 mps 763 mmHg 84%
    04:00 +26°C° 0 mm 4 mps 763 mmHg 84%
    05:00 +26°C° 0 mm 4 mps 764 mmHg 82%
    06:00 +27°C° 0 mm 5 mps 764 mmHg 81%
    07:00 +27°C° 0 mm 5 mps 765 mmHg 79%
    08:00 +29°C° 0 mm 5 mps 765 mmHg 73%
    09:00 +30°C° 0 mm 5 mps 765 mmHg 66%
    10:00 +32°C° 0 mm 5 mps 766 mmHg 59%
    11:00 +32°C° 0 mm 5 mps 765 mmHg 58%
    12:00 +33°C° 0 mm 5 mps 764 mmHg 56%
    13:00 +33°C° 0 mm 4 mps 764 mmHg 55%
    14:00 +32°C° 0 mm 4 mps 764 mmHg 59%
    15:00 +30°C° 0 mm 4 mps 763 mmHg 63%
    16:00 +30°C° 0 mm 4 mps 763 mmHg 67%
    17:00 +29°C° 0 mm 4 mps 763 mmHg 72%
    18:00 +27°C° 0 mm 3 mps 764 mmHg 76%
    19:00 +26°C° 0 mm 3 mps 764 mmHg 81%
    20:00 +26°C° 0 mm 3 mps 764 mmHg 82%
    21:00 +26°C° 0 mm 3 mps 764 mmHg 82%
    22:00 +26°C° 0 mm 3 mps 765 mmHg 83%
    23:00 +26°C° 0 mm 2 mps 764 mmHg 84%

    Day after tomorrow, 12 December, Wednesday

    Time Temperature Precipitation Wind Pressure Humidity
    00:00 +26°C° 0 mm 2 mps 764 mmHg 84%
    01:00 +25°C° 0 mm 2 mps 764 mmHg 85%
    02:00 +25°C° 0 mm 2 mps 763 mmHg 86%
    03:00 +25°C° 0 mm 2 mps 763 mmHg 86%
    04:00 +25°C° 0 mm 2 mps 763 mmHg 87%
    05:00 +25°C° 0 mm 2 mps 763 mmHg 85%
    06:00 +26°C° 0 mm 2 mps 764 mmHg 83%
    07:00 +27°C° 0 mm 2 mps 764 mmHg 81%
    08:00 +28°C° 0 mm 2 mps 764 mmHg 73%
    09:00 +29°C° 0 mm 2 mps 765 mmHg 65%
    10:00 +31°C° 0 mm 2 mps 765 mmHg 58%
    11:00 +31°C° 0 mm 2 mps 764 mmHg 56%
    12:00 +33°C° 0 mm 3 mps 764 mmHg 54%
    13:00 +33°C° 0 mm 3 mps 763 mmHg 53%
    14:00 +31°C° 0 mm 3 mps 763 mmHg 57%
    15:00 +30°C° 0 mm 3 mps 762 mmHg 61%
    16:00 +29°C° 0 mm 4 mps 762 mmHg 66%
    17:00 +28°C° 0 mm 4 mps 762 mmHg 71%
    18:00 +27°C° 0 mm 4 mps 763 mmHg 75%
    19:00 +26°C° 0 mm 4 mps 763 mmHg 80%
    20:00 +26°C° 0.2 mm 5 mps 764 mmHg 82%
    21:00 +26°C° 0.2 mm 5 mps 764 mmHg 83%
    22:00 +26°C° 0.2 mm 5 mps 764 mmHg 85%
    23:00 +26°C° 0.4 mm 5 mps 764 mmHg 86%

    13 December, Thursday

    Time Temperature Precipitation Wind Pressure Humidity
    00:00 +26°C° 0.4 mm 5 mps 763 mmHg 87%
    01:00 +26°C° 0.4 mm 5 mps 763 mmHg 89%
    02:00 +26°C° 0.5 mm 5 mps 763 mmHg 89%
    03:00 +25°C° 0.5 mm 5 mps 763 mmHg 89%
    04:00 +25°C° 0.5 mm 5 mps 763 mmHg 89%
    05:00 +26°C° 0.4 mm 6 mps 763 mmHg 87%
    06:00 +26°C° 0.4 mm 6 mps 763 mmHg 85%
    07:00 +26°C° 0.4 mm 6 mps 764 mmHg 83%
    08:00 +28°C° 0.1 mm 6 mps 764 mmHg 76%
    09:00 +30°C° 0.1 mm 7 mps 765 mmHg 69%
    10:00 +32°C° 0.1 mm 7 mps 765 mmHg 61%
    11:00 +32°C° 0 mm 6 mps 764 mmHg 60%
    12:00 +32°C° 0 mm 6 mps 764 mmHg 58%
    13:00 +33°C° 0 mm 6 mps 763 mmHg 56%
    14:00 +32°C° 0 mm 6 mps 763 mmHg 60%
    15:00 +30°C° 0 mm 6 mps 763 mmHg 64%
    16:00 +29°C° 0 mm 6 mps 763 mmHg 68%
    17:00 +28°C° 0 mm 6 mps 763 mmHg 72%
    18:00 +27°C° 0 mm 7 mps 764 mmHg 75%
    19:00 +27°C° 0 mm 7 mps 764 mmHg 79%
    20:00 +27°C° 0 mm 7 mps 764 mmHg 80%
    21:00 +27°C° 0 mm 7 mps 764 mmHg 82%
    22:00 +27°C° 0 mm 7 mps 764 mmHg 83%
    23:00 +27°C° 0.1 mm 7 mps 764 mmHg 84%

    14 December, Friday

    Time Temperature Precipitation Wind Pressure Humidity
    00:00 +26°C° 0.1 mm 7 mps 764 mmHg 85%
    01:00 +26°C° 0.1 mm 7 mps 763 mmHg 86%
    02:00 +26°C° 0.2 mm 7 mps 763 mmHg 86%
    03:00 +26°C° 0.2 mm 7 mps 763 mmHg 86%
    04:00 +26°C° 0.2 mm 7 mps 763 mmHg 86%
    05:00 +26°C° 0.3 mm 7 mps 764 mmHg 86%
    06:00 +26°C° 0.3 mm 7 mps 764 mmHg 86%
    07:00 +26°C° 0.3 mm 8 mps 764 mmHg 87%
    08:00 +28°C° 0.2 mm 8 mps 765 mmHg 81%
    09:00 +29°C° 0.2 mm 8 mps 765 mmHg 75%
    10:00 +30°C° 0.2 mm 7 mps 765 mmHg 69%
    11:00 +32°C° 0 mm 7 mps 764 mmHg 64%
    12:00 +32°C° 0 mm 6 mps 764 mmHg 60%
    13:00 +33°C° 0 mm 6 mps 763 mmHg 55%
    14:00 +32°C° 0.1 mm 6 mps 763 mmHg 60%
    15:00 +30°C° 0.1 mm 6 mps 763 mmHg 65%
    16:00 +29°C° 0.1 mm 6 mps 763 mmHg 71%
    17:00 +28°C° 0.6 mm 6 mps 763 mmHg 77%
    18:00 +27°C° 0.6 mm 6 mps 763 mmHg 83%
    19:00 +26°C° 0.6 mm 6 mps 764 mmHg 89%
    20:00 +26°C° 0.2 mm 6 mps 764 mmHg 88%
    21:00 +26°C° 0.2 mm 6 mps 764 mmHg 88%
    22:00 +26°C° 0.2 mm 6 mps 764 mmHg 87%
    23:00 +26°C° 0 mm 6 mps 764 mmHg 87%

    15 December, Saturday

    Time Temperature Precipitation Wind Pressure Humidity
    00:00 +26°C° 0 mm 6 mps 764 mmHg 86%
    01:00 +26°C° 0 mm 6 mps 763 mmHg 85%
    02:00 +26°C° 0 mm 6 mps 763 mmHg 85%
    03:00 +26°C° 0 mm 6 mps 763 mmHg 85%
    04:00 +26°C° 0 mm 6 mps 763 mmHg 84%
    05:00 +26°C° 0 mm 6 mps 764 mmHg 84%
    06:00 +27°C° 0 mm 5 mps 764 mmHg 83%
    07:00 +27°C° 0 mm 5 mps 765 mmHg 82%
    08:00 +29°C° 0 mm 5 mps 765 mmHg 75%
    09:00 +30°C° 0 mm 6 mps 765 mmHg 68%
    10:00 +32°C° 0 mm 6 mps 765 mmHg 61%
    11:00 +32°C° 0.1 mm 5 mps 765 mmHg 60%
    12:00 +32°C° 0.1 mm 5 mps 764 mmHg 60%
    13:00 +33°C° 0.1 mm 5 mps 764 mmHg 60%
    14:00 +32°C° 0.3 mm 5 mps 763 mmHg 65%
    15:00 +30°C° 0.3 mm 5 mps 763 mmHg 70%
    16:00 +29°C° 0.3 mm 5 mps 763 mmHg 75%
    17:00 +28°C° 0.1 mm 5 mps 763 mmHg 78%
    18:00 +28°C° 0.1 mm 5 mps 764 mmHg 80%
    19:00 +27°C° 0.1 mm 4 mps 764 mmHg 83%
    20:00 +27°C° 0.1 mm 4 mps 764 mmHg 82%
    21:00 +27°C° 0.1 mm 4 mps 764 mmHg 82%
    22:00 +27°C° 0.1 mm 4 mps 765 mmHg 81%
    23:00 +27°C° 0 mm 4 mps 764 mmHg 82%
    Show more